Location: Goll?ig?dem
(16.6773°N, 80.7332°E)
Time: 07:09:58
(UTC+00:00)

Envisat - Pass Details

Date: 29 September 2021
Orbit: 764 x 766 km, 98.2° (Epoch: 23 October)

Event Time Altitude Azimuth Distance (km) Brightness Sun altitude
Rises 23:17:59 0° 17° (NNE) 3,221 6.5 -17.4°
Reaches altitude 10° 23:20:19 10° 20° (NNE) 2,295 5.7 -16.8°
Maximum altitude 23:25:19 64° 101° (E) 845 3.5 -15.6°
Drops below altitude 10° 23:30:19 10° 182° (S) 2,291 5.4 -14.4°
Sets 23:32:38 0° 186° (S) 3,215 6.2 -13.9°
